Joplin, MO

5:05 PM CST on November 13, 2019 (GMT -0600)
Joplin Regional

Weather History for KJLN - September, 2019

Change the Weather History Date:

Friday, September 20, 2019

  Actual Average Record
Temperature  
Mean Temperature 75 °F 69 °F  
Max Temperature 80 °F 80 °F 99 °F (1954)
Min Temperature 70 °F 57 °F 38 °F (1991)
Degree Days  
Heating Degree Days 0 2  
Month to date heating degree days 0 11  
Since 1 July heating degree days 0 12  
Cooling Degree Days 10 6  
Month to date cooling degree days 297 171  
Year to date cooling degree days 1548 1598  
Growing Degree Days 25 (Base 50)    
Moisture  
Dew Point 67 °F    
Average Humidity 81    
Maximum Humidity 91    
Minimum Humidity 62    
Precipitation  
Precipitation 0.02 in 0.17 in 1.07 in (1992)
Month to date precipitation 0.74 3.33  
Year to date precipitation 49.63 34.30  
Sea Level Pressure  
Sea Level Pressure 30.00 in    
Wind  
Wind Speed 9 mph ()    
Max Wind Speed 24 mph    
Max Gust Speed 36 mph    
Visibility 9.6 miles    
Events Rain    
T = Trace of Precipitation, MM = Missing Value Source: Averaged Metar Reports

Daily Weather History Graph

Daily Weather History Graph

Search for Another Location

Airport or City:

Astronomy

Sep. 20, 2019 Rise Set
Actual Time 7:04 AM CDT 7:18 PM CDT
Civil Twilight 6:38 AM CDT 7:44 PM CDT
Nautical Twilight 6:07 AM CDT 8:14 PM CDT
Astronomical Twilight 5:36 AM CDT 8:45 PM CDT
Moon 11:16 PM CDT (9/20) 1:01 PM CDT (9/20)
Length of Visible Light 13h 06m
Length of Day
12h 14m
Waning Gibbous, 65% of the Moon is Illuminated
Sep 20
Waning Gibbous
Sep 21
Last Quarter
Sep 28
New
Oct 5
First Quarter
Oct 13
Full

Hourly Weather History & Observations

Time (CDT) Temp. Heat Index Dew Point Humidity Pressure Visibility Wind Dir Wind Speed Gust Speed Precip Events Conditions
12:53 AM 75.0 °F - 66.9 °F 76% 29.98 in 10.0 mi SE 6.9 mph - N/A   Clear
1:53 AM 73.0 °F - 66.9 °F 81% 29.99 in 10.0 mi ESE 6.9 mph - N/A   Clear
2:53 AM 72.0 °F - 66.9 °F 84% 29.98 in 10.0 mi ESE 5.8 mph - N/A   Clear
3:53 AM 71.1 °F - 66.9 °F 87% 29.98 in 10.0 mi ESE 4.6 mph - N/A   Clear
4:53 AM 71.1 °F - 66.0 °F 84% 29.98 in 10.0 mi East 8.1 mph - N/A   Clear
5:53 AM 70.0 °F - 66.0 °F 87% 29.99 in 10.0 mi ESE 5.8 mph - N/A   Clear
6:53 AM 70.0 °F - 66.0 °F 87% 30.00 in 10.0 mi ESE 8.1 mph - N/A   Clear
7:53 AM 72.0 °F - 66.9 °F 84% 30.00 in 10.0 mi SE 9.2 mph - N/A   Clear
8:53 AM 75.9 °F - 66.0 °F 71% 30.01 in 10.0 mi SE 6.9 mph - N/A   Clear
9:53 AM 79.0 °F - 66.9 °F 66% 30.02 in 10.0 mi SSE 13.8 mph 21.9 mph N/A   Scattered Clouds
10:53 AM 78.1 °F - 66.9 °F 68% 30.03 in 10.0 mi SE 15.0 mph 23.0 mph N/A   Overcast
11:33 AM 78.1 °F - 66.9 °F 68% 30.05 in 10.0 mi SSE 17.3 mph 25.3 mph N/A   Overcast
11:53 AM 80.1 °F 82.3 °F 66.9 °F 64% 30.02 in 10.0 mi SSE 18.4 mph 26.5 mph N/A   Overcast
12:53 PM 75.0 °F - 66.9 °F 76% 30.03 in 10.0 mi SSE 17.3 mph 29.9 mph 0.00 in   Overcast
1:33 PM 72.0 °F - 68.0 °F 87% 30.04 in 7.0 mi SE 12.7 mph - 0.00 in Rain Light Rain
1:53 PM 72.0 °F - 69.1 °F 91% 30.02 in 4.0 mi SE 10.4 mph - 0.01 in Rain Light Rain
2:32 PM 73.0 °F - 70.0 °F 90% 30.02 in 9.0 mi SSE 16.1 mph 27.6 mph 0.01 in Rain Light Rain
2:53 PM 73.9 °F - 70.0 °F 87% 29.98 in 10.0 mi SE 16.1 mph 26.5 mph 0.01 in   Overcast
3:53 PM 75.0 °F - 68.0 °F 79% 29.97 in 10.0 mi SSE 11.5 mph 27.6 mph N/A   Mostly Cloudy
4:53 PM 73.9 °F - 68.0 °F 82% 29.97 in 10.0 mi SSE 10.4 mph - N/A   Overcast
5:53 PM 73.9 °F - 68.0 °F 82% 29.97 in 10.0 mi SSE 9.2 mph - N/A   Overcast
6:53 PM 73.9 °F - 66.9 °F 79% 29.98 in 10.0 mi SSE 12.7 mph - N/A   Overcast
7:53 PM 73.0 °F - 66.9 °F 81% 29.97 in 10.0 mi SSE 13.8 mph 20.7 mph N/A   Overcast
8:53 PM 73.0 °F - 66.9 °F 81% 29.98 in 10.0 mi SSE 10.4 mph - N/A   Overcast
9:34 PM 73.0 °F - 68.0 °F 84% 30.02 in 10.0 mi SSE 10.4 mph - N/A   Overcast
9:53 PM 73.0 °F - 68.0 °F 84% 30.00 in 10.0 mi SSE 11.5 mph - N/A   Overcast
10:53 PM 73.0 °F - 68.0 °F 84% 30.01 in 10.0 mi SSE 9.2 mph - N/A   Overcast
11:53 PM 73.0 °F - 69.1 °F 87% 30.01 in 10.0 mi SSE 8.1 mph - N/A   Overcast